铱星星座 172星 (IRIDIUM 172)

导读

IRIDIUM 172(铱星172)是美国铱星卫星通信系统的组成部分,属于第二代Iridium NEXT卫星星座,由SpaceX于2019年1月11日发射升空。卫星运行于近地轨道,由意大利阿莱尼亚宇航公司制造,美国铱星通信公司运营。旨在为全球提供语音和数据通信服务,抗干扰能力强、覆盖范围广,目前仍在轨稳定运行,广泛服务于航空、航海及偏远地区应急通信等领域。

基本信息
目录编号:
43927
目录名称:
IRIDIUM 172
国际标识:
2019-002F
轨道中心:
EARTH
卫星名称:
铱星星座 172星
卫星全名:
铱星星座 172星 (IRIDIUM 172)
卫星状态:
在轨 (已飞行2713 天)
发射日期:
2019-01-11 UTC
国别 :
美国 (US)
星等 :
--
轨道信息
数据来源 国际轨道数据
星历时间: 2026-06-16T09:32:15+0800
12小时前
查看轨道信息
半长轴: 7155.803km
偏心率: 0.0002249
轨道倾角: 86.397°
近地点辐角 88.829°
升交点赤经 354.041°
平近点角 271.317°
近地点: 776.056km
远地点: 779.276km
周期: 100.403分钟
每日圈数: 14.342181
详细信息
平衡模式:
三轴稳定
覆盖范围:
全球
运营商:
铱星通信公司
运营商所在国:
美国
制造商(研发单位):
阿莱尼亚宇航公司
制造商所在国:
意大利
使用方式:
暂无
卫星简介
铱星(Iridium)是由共66个运作中的通信卫星组成的卫星通信系统。这个系统原本规划77个通信卫星,所以用原子序数为77的铱元素来命名。铱卫星允许人们使用手持型电子设备进行全球性的语音及数据通讯。该卫星仍在工作。
2D轨道图
3D轨道图
轨道高度分析图
轨道倾角分析图
轨道综合分析图
查看轨道综合分析图